Lapse_Rate
5.7 5.8 5.8 5.8 5.8 5.8 5.8 5.8 5.8 5.9 6.0 6.2 6.2 6.2 6.5 6.7 6.4 6.6 6.7 6.7 6.7 6.9 7.1 7.3 7.7 7.7 7.8 7.9 7.9 7.9 7.8 7.7 7.7 7.6 7.9 7.9 8.0 8.0 8.0 8.0 7.9 7.9 7.8 7.8 7.5 7.5 7.4
5.8 5.8 5.9 5.9 5.9 5.8 5.8 5.8 5.8 5.9 6.0 6.0 6.2 6.4 6.3 6.5 6.8 6.6 6.7 6.9 6.8 6.9 7.0 7.2 7.5 7.8 8.0 7.8 7.9 7.8 7.9 7.7 7.7 7.8 7.9 8.0 7.9 8.0 8.1 8.2 8.1 8.2 8.2 8.1 8.0 7.7 7.5
5.9 6.0 6.0 6.1 6.1 6.1 6.1 6.0 6.1 6.1 6.2 6.1 6.1 6.2 6.4 6.5 6.6 6.9 6.8 7.0 7.0 7.0 7.1 7.2 7.2 7.7 8.0 7.8 7.9 7.9 7.9 7.9 7.9 7.9 7.9 7.9 7.9 8.1 8.2 8.3 8.5 8.4 8.4 8.2 8.1 7.9 7.8
6.0 6.1 6.2 6.3 6.4 6.4 6.4 6.5 6.6 6.5 6.4 6.4 6.3 6.2 6.2 6.4 6.5 6.7 7.1 6.9 7.0 7.2 7.2 7.3 7.3 7.2 7.9 7.9 8.0 7.9 7.9 8.1 8.2 8.0 8.1 8.0 8.2 8.4 8.4 8.4 8.4 8.3 8.3 8.2 8.2 8.0 7.9
6.1 6.2 6.3 6.4 6.5 6.5 6.6 6.7 6.8 6.8 6.8 6.7 6.6 6.5 6.3 6.2 6.1 6.7 7.1 7.2 7.2 7.2 7.4 7.4 7.4 7.4 7.5 7.8 8.0 8.0 8.0 8.0 8.0 7.9 8.0 8.0 8.1 8.4 8.2 8.1 8.3 8.1 8.0 7.9 7.9 7.8 7.8
6.3 6.4 6.4 6.5 6.5 6.6 6.7 6.8 6.9 6.9 7.0 6.9 6.8 6.6 6.3 6.2 6.1 6.3 7.0 7.3 7.5 7.5 7.4 7.7 7.5 7.6 7.6 7.7 7.8 7.9 7.9 8.0 8.0 7.9 7.9 7.9 8.1 8.2 8.1 7.9 8.1 8.0 8.0 8.1 7.7 8.1 7.7
6.4 6.4 6.4 6.5 6.5 6.5 6.6 6.7 6.8 6.9 7.0 7.0 6.8 6.6 6.3 6.0 6.0 6.2 6.8 7.4 7.5 7.6 7.7 7.6 7.8 7.8 8.0 8.0 7.5 7.3 7.6 8.1 7.9 7.8 8.0 8.0 8.0 8.3 8.2 8.2 8.2 8.3 8.5 8.5 8.7 8.6 8.4
6.3 6.3 6.3 6.3 6.4 6.4 6.5 6.5 6.6 6.9 6.9 7.0 7.1 6.7 6.3 5.9 5.8 6.1 6.8 7.4 7.5 7.8 7.7 7.7 7.6 7.6 8.0 8.1 7.9 7.7 7.5 7.7 7.8 8.0 8.0 8.1 8.2 8.2 8.3 8.3 8.3 8.4 8.5 8.6 8.5 8.4 8.2
6.1 6.2 6.2 6.3 6.3 6.4 6.4 6.4 6.6 6.8 6.9 7.1 7.3 7.1 6.6 6.2 6.0 6.1 6.6 7.4 7.5 7.6 7.9 7.8 7.8 7.7 7.7 7.7 7.8 7.8 7.7 7.5 7.9 8.0 8.0 8.2 8.4 8.1 8.4 8.4 8.4 8.3 8.3 8.4 8.4 8.3 8.3
6.0 6.0 6.1 6.2 6.2 6.3 6.3 6.4 6.6 6.8 6.9 7.1 7.4 7.3 6.9 6.6 6.2 6.3 6.9 7.3 7.6 7.6 8.1 7.8 7.7 7.6 7.6 7.7 7.7 7.8 7.8 7.5 7.5 7.9 8.1 7.8 8.2 8.3 8.3 8.4 8.3 8.4 8.1 8.6 8.5 8.2 8.3
5.8 5.8 5.9 6.0 6.0 6.1 6.2 6.4 6.6 6.8 7.0 7.2 7.4 7.5 7.2 6.8 6.7 6.5 6.8 7.4 7.6 7.6 8.1 7.9 7.7 7.9 8.1 7.9 8.1 8.2 7.8 7.7 7.5 7.9 8.1 8.0 8.2 8.5 8.1 8.4 8.2 8.2 8.1 8.5 8.6 8.5 8.1
5.6 5.6 5.8 5.9 5.9 6.1 6.3 6.4 6.6 6.8 7.0 7.2 7.4 7.5 7.3 7.0 6.8 6.8 6.7 7.0 7.5 7.6 7.7 7.8 7.8 7.9 8.0 8.0 7.9 7.4 7.6 7.8 7.7 7.7 7.7 7.8 8.0 8.2 7.9 8.4 8.2 8.1 8.3 8.3 8.4 8.2 8.4
5.6 5.6 5.7 5.8 5.9 6.1 6.3 6.3 6.5 6.7 7.0 7.2 7.2 7.3 7.2 7.0 6.9 6.9 6.8 6.9 7.1 7.5 7.5 7.7 7.8 7.8 8.0 7.7 7.6 7.3 7.4 7.8 7.9 7.5 7.4 7.7 7.8 8.1 8.1 8.2 8.2 8.3 8.4 8.7 8.6 8.5 8.9
5.6 5.7 5.9 5.9 5.9 5.9 6.1 6.3 6.4 6.6 6.8 6.9 7.0 6.9 7.0 7.1 7.0 7.0 6.9 6.9 6.9 6.8 7.3 7.5 7.7 7.8 7.9 8.0 7.7 8.0 7.8 7.7 7.6 7.5 7.5 7.5 7.6 8.0 8.2 8.2 8.2 8.4 8.4 8.8 8.5 8.7 8.4
5.7 5.9 5.9 6.0 6.1 6.1 6.0 6.2 6.3 6.4 6.5 6.5 6.6 6.5 6.5 6.8 6.9 6.9 6.8 6.6 6.5 6.6 6.9 7.4 7.6 7.7 7.9 8.0 8.0 8.0 8.0 7.8 7.6 7.7 7.7 7.7 7.7 8.1 8.2 8.3 8.3 8.5 8.5 8.7 8.6 8.1 7.7
5.8 5.9 5.9 5.9 6.1 6.1 6.2 6.1 6.0 6.1 6.2 6.3 6.2 6.2 6.3 6.4 6.6 6.5 6.4 6.5 6.2 6.3 6.5 6.9 7.4 7.5 7.6 7.9 8.0 8.0 7.8 7.7 7.5 7.6 7.7 7.6 7.8 8.1 8.4 8.2 8.3 8.4 8.4 8.7 8.5 8.6 8.5
5.7 5.8 5.8 5.8 5.9 6.0 6.1 6.1 6.0 6.0 6.0 6.1 6.2 6.2 6.1 6.3 6.3 6.2 6.1 6.0 5.8 5.9 6.2 6.4 6.5 6.9 7.4 7.6 7.6 7.6 7.9 7.7 7.7 7.6 7.6 7.5 7.7 7.9 8.3 8.5 8.5 8.2 7.9 8.3 8.6 8.5 9.1
5.7 5.8 5.8 5.9 5.9 6.1 6.2 6.2 6.2 6.0 6.0 5.8 5.9 5.9 6.0 5.9 6.0 5.9 5.8 5.8 5.7 5.6 5.8 6.1 6.3 6.3 6.4 6.6 7.0 7.2 7.4 7.6 7.7 7.8 7.8 7.8 7.6 7.6 7.8 8.2 8.5 8.4 8.3 8.1 8.3 8.3 8.3
5.8 5.8 5.8 6.0 5.9 6.0 5.9 5.9 6.1 6.2 6.2 6.1 5.8 5.7 5.7 5.8 5.7 5.5 5.4 5.5 5.6 5.8 5.8 5.7 5.9 6.0 6.3 6.3 6.3 6.6 6.9 7.2 7.4 7.7 7.6 7.5 7.4 7.6 8.1 8.1 8.3 8.4 8.3 8.3 7.8 7.7 7.8
5.8 5.9 5.9 5.8 5.8 6.0 5.8 5.8 5.9 6.1 6.0 5.9 5.8 5.4 5.4 5.5 5.4 5.5 5.6 5.7 5.5 5.7 5.7 5.7 5.6 5.7 5.9 5.9 6.2 6.3 6.5 6.7 6.9 7.1 7.3 7.3 7.1 7.2 7.6 7.8 7.5 7.8 8.0 8.0 7.8 7.8 8.1
5.6 5.6 5.7 5.6 5.7 5.8 5.7 5.8 5.8 5.9 5.9 5.9 5.6 5.3 5.1 5.2 5.2 5.1 5.3 5.3 5.5 5.4 5.5 5.6 5.6 5.8 5.8 5.7 5.8 5.9 6.0 6.3 6.5 6.6 6.6 6.5 6.4 6.7 7.0 7.1 7.1 7.3 7.7 8.1 7.6 7.6 7.5
5.4 5.5 5.5 5.5 5.7 5.8 5.8 5.9 5.8 5.6 5.4 5.2 5.4 5.1 4.9 4.8 4.9 5.1 5.0 5.2 5.2 5.4 5.4 5.4 5.3 5.4 5.3 5.4 5.4 5.8 5.8 5.8 5.8 6.3 6.0 6.1 5.8 5.9 6.0 6.6 7.0 6.5 6.7 7.3 7.6 7.4 6.8
5.4 5.4 5.3 5.4 5.5 5.4 5.5 5.6 5.6 5.6 5.5 5.4 5.1 5.0 4.8 4.6 4.7 4.8 5.0 5.0 5.0 5.2 5.4 5.3 5.0 4.9 5.4 5.1 5.0 5.2 5.5 5.7 5.8 5.7 5.9 5.9 5.6 5.7 5.9 6.0 6.2 6.2 6.3 6.4 6.6 7.0 7.4
5.2 5.1 5.1 5.3 5.4 5.2 5.2 5.1 5.0 5.2 5.4 5.2 5.0 4.9 4.9 4.8 4.7 4.7 4.4 4.6 4.8 4.7 5.2 5.6 4.7 4.6 5.1 5.5 5.3 5.1 5.4 5.5 5.7 5.9 5.8 5.7 5.6 5.9 5.8 5.9 6.4 6.2 6.4 6.8 7.0 6.8 7.0
5.1 5.1 5.1 5.1 5.1 5.2 5.1 4.7 4.7 4.7 4.7 4.6 4.6 4.6 4.6 4.8 4.6 4.5 4.5 4.7 4.8 4.8 5.3 5.2 5.2 5.1 5.2 5.4 5.2 5.2 5.1 5.2 5.9 6.3 6.4 6.3 5.5 5.5 6.0 6.4 6.3 6.1 6.3 6.5 6.6 6.6 6.6
5.1 5.1 5.1 4.9 4.8 4.9 5.1 5.0 4.6 4.4 4.5 4.4 4.3 4.3 4.4 4.5 4.4 4.4 4.8 5.0 5.0 5.2 5.7 5.5 5.2 4.9 5.3 5.4 4.8 4.2 5.1 5.6 5.6 5.9 6.4 6.4 5.9 5.3 5.7 6.1 6.6 6.5 6.8 6.9 6.6 6.4 6.5
5.2 5.1 5.1 5.0 4.9 4.8 5.0 5.0 4.8 4.6 4.2 4.2 4.1 4.2 4.4 4.6 4.4 4.3 4.7 5.0 5.0 5.2 5.5 6.0 5.6 5.4 5.2 4.8 4.2 4.3 4.7 5.0 5.3 5.7 5.8 6.3 6.1 5.3 5.5 6.1 6.2 6.1 6.6 6.3 7.0 6.8 6.1
5.3 5.2 5.1 5.0 5.1 5.1 5.1 5.0 4.8 4.6 4.5 4.1 3.9 4.0 4.0 4.8 4.7 4.3 5.0 5.0 5.1 5.2 5.5 5.5 4.9 5.0 4.9 4.8 4.3 4.3 4.3 4.8 5.1 5.3 5.5 5.7 6.0 5.8 5.7 5.9 5.7 5.6 6.3 6.7 6.3 6.2 6.5
5.2 5.2 5.1 5.2 5.3 5.1 5.0 5.0 4.8 4.5 4.4 4.4 4.1 4.0 4.0 4.8 4.6 4.5 4.9 5.0 5.2 5.6 5.7 5.6 4.8 4.6 4.7 4.5 4.4 4.3 4.6 4.8 5.0 5.1 5.5 5.4 6.0 6.2 6.2 6.1 5.8 5.8 6.0 6.3 5.8 5.5 6.0
Wind_Speed
21 21 21 21 23 25 26 25 23 22 22 22 23 22 24 24 24 23 22 21 19 20 16 11 6 4 2 3 3 7 19 20 13 10 8 3 2 2 5 3 2 3 3 3 5 9 8
20 20 21 21 23 24 24 25 26 25 23 23 23 24 24 25 25 25 23 22 20 19 16 10 5 2 2 3 3 16 17 17 12 7 6 4 2 4 6 4 3 3 5 6 4 11 10
20 20 21 21 23 24 25 25 25 25 26 25 24 25 25 25 27 27 25 24 23 17 14 8 5 3 2 5 5 15 16 9 14 7 5 3 3 4 8 6 6 5 4 2 5 11 7
21 21 21 21 22 23 23 25 26 27 27 27 26 25 26 26 26 27 27 26 21 15 8 5 5 2 5 3 11 12 11 9 10 4 2 1 1 5 3 8 4 3 1 3 5 11 6
23 23 24 24 24 24 25 25 25 26 27 28 27 27 27 27 26 25 27 25 14 2 6 9 2 2 5 4 4 10 10 9 10 6 4 4 3 3 3 6 4 4 10 11 4 12 8
23 24 24 25 25 25 26 26 26 27 27 28 28 27 27 27 25 24 26 10 4 0 3 2 1 3 1 3 4 7 4 16 4 8 3 3 2 2 1 5 8 15 15 12 11 5 12
24 24 25 26 26 27 27 27 27 27 27 28 28 27 27 26 25 22 11 2 2 2 1 4 1 3 2 3 6 3 6 8 5 3 4 1 4 8 12 6 8 10 11 15 16 6 10
24 25 26 27 28 29 29 29 29 29 28 28 28 27 26 26 24 20 2 4 4 1 5 5 7 8 8 2 4 4 8 9 7 9 5 3 7 11 5 5 7 8 14 13 8 3 10
26 26 27 28 29 30 31 31 31 30 29 27 27 25 24 24 27 4 2 6 3 3 2 4 2 4 3 10 9 6 13 5 6 8 11 9 6 2 8 11 9 11 13 13 7 4 5
26 27 27 28 30 31 32 33 33 32 31 29 26 23 21 26 2 2 2 1 7 5 2 3 1 1 1 2 6 6 15 5 4 9 5 8 3 10 8 7 4 14 6 10 13 8 5
26 27 28 29 31 32 33 34 34 32 30 29 25 20 15 8 1 2 2 9 2 3 1 10 1 2 1 4 5 2 3 6 12 10 5 16 5 7 8 8 3 12 5 7 5 3 3
28 29 30 31 32 34 35 36 36 34 32 28 23 15 5 2 1 3 10 4 2 1 1 4 3 5 3 1 2 5 5 4 2 10 6 11 0 4 5 2 6 7 8 1 1 1 4
29 30 31 33 34 35 36 38 38 36 33 28 22 5 6 1 2 10 7 1 1 0 3 6 4 6 3 4 2 4 3 10 8 7 13 11 7 3 5 7 4 1 4 5 4 4 3
30 31 33 34 36 37 38 39 40 39 35 29 17 9 3 2 8 6 0 2 1 1 3 3 4 5 4 8 3 5 3 4 5 2 4 8 12 7 6 9 13 8 5 5 4 5 10
31 33 35 36 38 40 40 40 41 41 37 28 3 1 2 8 2 2 2 2 2 0 4 7 6 3 4 5 5 3 5 3 3 4 4 4 10 4 8 6 5 4 8 6 7 1 3
30 32 35 37 39 40 42 42 42 43 39 24 1 2 4 17 3 1 4 3 1 2 5 2 2 3 3 6 6 6 3 5 6 3 5 2 5 1 4 2 2 7 7 4 3 5 7
30 32 35 38 40 43 45 45 45 45 42 13 2 2 6 14 1 5 3 1 2 2 5 2 1 2 1 1 2 2 2 2 5 7 2 1 2 3 3 4 3 3 5 3 3 3 8
29 31 33 37 40 42 44 47 46 45 44 7 2 2 7 7 4 2 2 4 6 5 6 4 1 4 3 3 3 2 3 1 8 4 3 4 2 5 7 0 6 5 3 4 5 6 3
28 30 32 34 36 39 43 48 49 43 31 3 3 2 4 5 3 3 3 2 3 8 7 7 5 5 3 3 4 2 2 1 7 3 2 2 1 5 5 4 3 1 3 4 2 0 7
27 29 30 32 35 37 40 44 49 48 35 1 2 2 5 5 2 3 4 3 4 6 2 4 5 3 4 3 0 2 3 1 9 5 3 3 3 9 12 11 4 8 5 5 4 4 3
24 25 27 29 31 35 37 40 45 48 40 2 5 3 2 4 4 4 2 2 3 5 4 5 2 6 4 3 4 4 3 6 6 4 1 3 11 8 12 11 8 13 17 15 13 13 8
22 23 24 27 29 31 33 37 41 48 28 6 3 3 3 1 3 4 2 2 3 4 4 4 4 7 6 4 6 7 3 3 5 4 3 1 8 3 12 13 16 21 20 19 19 17 14
21 21 22 24 26 27 28 31 35 41 20 4 3 1 1 2 3 4 2 2 1 6 4 8 5 10 13 12 6 11 13 14 14 10 8 6 6 6 17 12 14 17 23 23 23 19 17
19 19 19 20 21 23 25 26 27 29 18 2 2 2 2 2 2 3 4 6 4 5 10 13 14 10 2 12 15 17 17 19 20 22 19 15 13 10 11 8 18 15 6 2 9 1 3
18 17 17 17 17 19 20 22 22 22 24 4 2 2 1 4 3 7 4 5 7 8 7 11 12 8 8 10 7 7 5 7 15 27 25 23 17 11 9 13 18 13 8 11 8 5 2
19 17 16 15 15 15 15 16 18 18 20 3 3 2 1 3 3 3 4 4 4 4 4 4 5 7 4 2 3 4 5 4 5 3 5 17 18 14 7 15 12 2 9 10 6 13 3
20 18 16 15 14 13 12 12 13 13 15 5 2 3 1 3 4 5 5 4 3 3 4 4 4 3 2 3 4 5 7 6 7 8 5 5 7 20 19 14 9 8 4 1 14 2 3
20 19 19 16 14 12 11 9 9 8 9 5 2 2 2 3 9 6 5 7 5 4 4 2 4 3 2 3 3 4 4 4 5 8 8 6 6 7 11 16 22 4 3 7 4 2 3
21 20 20 18 15 13 11 9 9 6 6 3 1 2 3 4 6 5 14 18 18 12 6 4 3 1 3 3 3 3 4 4 6 10 8 11 12 6 6 6 5 5 5 5 2 1 7
Wind_Direction
17 13 10 6 1 358 354 353 353 351 348 344 341 338 333 330 328 326 325 322 320 317 318 317 307 297 207 262 276 137 141 143 131 135 157 130 66 335 321 303 247 223 302 277 236 159 173
13 10 6 2 359 355 352 349 346 344 344 342 339 335 331 327 327 326 324 320 318 312 308 302 288 254 243 279 75 144 143 153 150 136 150 155 0 313 292 282 241 256 246 281 166 170 160
14 10 6 1 354 351 349 346 343 340 338 338 337 333 330 327 327 326 324 320 317 307 295 276 235 225 236 262 97 144 147 159 161 153 163 231 289 305 326 296 306 270 267 167 144 166 159
13 9 4 358 354 351 348 344 340 337 335 334 333 331 329 327 327 324 322 321 317 299 273 224 184 222 259 40 135 144 140 136 173 184 218 281 291 276 256 312 287 305 282 299 162 164 160
10 7 3 359 355 351 347 343 339 335 331 330 330 328 327 325 325 324 321 321 324 20 129 147 169 274 270 135 164 162 174 153 153 190 221 260 288 335 285 325 329 35 330 313 304 197 158
9 4 1 357 353 349 344 340 337 333 330 328 327 326 325 323 325 324 319 297 314 222 135 205 220 278 148 2 120 136 155 146 157 159 196 223 224 287 283 339 346 327 324 317 306 206 199
7 4 360 355 352 347 342 338 335 333 329 327 325 324 323 322 324 326 332 265 297 154 100 239 111 309 313 30 154 131 170 161 136 192 217 163 266 289 305 296 286 298 294 307 304 256 228
7 3 359 356 351 345 339 335 331 330 329 326 323 323 321 321 320 321 271 82 100 338 305 252 256 261 264 250 300 145 170 183 186 213 150 181 254 286 304 268 289 310 320 323 304 349 220
6 2 359 356 348 343 336 333 330 329 327 323 322 323 321 321 316 291 5 125 15 192 279 301 260 253 268 189 217 215 182 171 196 189 210 246 277 328 289 303 307 320 312 319 318 347 209
5 2 357 351 344 340 335 332 331 331 328 323 324 322 322 323 281 335 122 39 326 197 7 298 17 48 137 225 260 195 185 189 201 242 216 254 235 256 276 277 296 310 326 293 319 311 316
3 359 353 349 345 341 337 334 334 332 329 325 324 322 320 327 5 143 42 321 142 219 132 344 19 3 84 222 334 163 208 174 227 225 205 269 258 259 256 279 225 291 336 333 332 299 261
3 359 355 351 348 344 340 338 338 336 333 331 327 322 319 106 242 326 324 311 209 307 353 355 354 348 329 237 257 324 192 219 233 236 236 271 319 262 265 286 222 300 298 316 69 304 257
2 358 355 353 350 347 344 342 341 340 339 338 336 331 157 336 11 326 320 124 148 197 330 357 340 342 315 345 9 2 176 191 214 215 236 244 241 247 217 273 187 175 312 304 259 238 313
2 360 357 355 352 351 348 346 345 344 344 344 346 126 182 252 304 309 329 117 134 281 327 0 337 319 36 356 28 9 92 124 70 282 239 247 249 209 182 241 277 258 265 271 288 302 316
3 360 358 357 355 352 351 349 348 346 346 345 355 122 60 352 302 291 97 85 72 307 315 324 310 22 358 358 345 1 55 33 12 20 235 223 258 274 212 236 206 186 216 280 254 176 245
3 1 359 358 356 354 352 352 352 349 347 345 87 59 24 340 314 36 77 121 183 251 318 287 318 19 336 349 358 10 42 9 336 6 298 183 278 212 293 213 190 231 149 196 210 242 245
4 3 0 359 357 356 354 354 355 353 346 342 55 64 355 349 314 50 73 55 311 316 352 322 330 278 280 322 299 331 28 60 352 323 322 358 250 199 247 218 177 177 207 207 222 227 255
4 4 2 1 360 356 355 355 356 356 347 34 32 58 351 330 46 35 56 339 344 338 6 6 21 337 318 326 287 225 208 176 353 313 3 17 306 262 269 329 277 234 265 235 236 199 232
3 4 4 2 0 358 1 357 352 357 4 330 56 334 353 340 58 37 352 357 9 6 16 4 7 9 14 321 294 306 263 147 5 25 33 349 232 296 264 177 148 180 132 100 47 179 210
2 2 3 3 1 0 4 359 355 353 358 57 43 28 8 46 24 18 1 19 337 13 101 355 351 9 347 307 11 300 282 289 331 324 49 210 216 250 260 296 333 282 266 250 263 240 206
359 0 2 3 2 1 5 5 0 355 355 47 24 61 33 359 25 11 330 339 339 346 352 348 134 57 34 287 303 272 302 317 313 318 346 276 263 248 254 252 262 271 279 276 246 246 245
353 358 1 2 1 3 6 8 7 0 1 64 41 4 12 349 299 332 354 32 342 359 314 314 282 344 325 273 275 281 312 272 276 317 283 297 265 267 263 270 269 268 265 261 261 254 251
347 352 358 0 358 1 7 12 13 10 14 58 22 84 286 35 344 320 7 28 326 327 254 264 311 327 299 298 290 284 278 270 265 275 275 282 261 257 264 265 273 270 254 247 250 246 240
338 345 352 354 356 359 4 11 16 19 27 52 36 297 341 322 308 303 302 310 267 273 276 286 295 279 278 327 304 275 260 257 253 248 239 245 240 241 267 249 244 246 235 249 262 262 204
330 334 339 344 350 356 358 4 11 18 18 59 26 331 15 289 272 288 258 268 290 284 266 278 286 278 336 307 291 283 240 242 245 241 234 226 232 240 238 227 257 248 241 223 204 155 37
325 324 326 333 340 345 350 354 2 10 16 58 42 329 341 304 232 279 291 268 284 286 289 248 290 313 269 240 228 253 260 302 266 230 25 220 226 221 209 233 241 293 233 297 247 247 20
321 322 322 323 327 330 334 341 353 5 6 24 52 15 302 273 261 207 256 279 196 228 258 294 315 310 308 215 240 253 257 275 263 265 241 158 194 216 224 238 258 262 295 176 199 167 36
322 317 318 313 312 313 318 326 332 351 3 7 337 5 2 271 276 236 230 218 216 218 245 29 280 178 250 231 241 245 254 263 271 269 286 258 209 209 226 234 246 338 242 242 19 290 330
323 320 316 310 306 305 304 308 310 327 348 10 301 227 243 226 272 252 261 259 253 271 250 212 296 215 261 261 236 297 272 266 280 269 223 252 242 272 230 213 125 64 51 347 255 141 327